LA8QT Lodingen NO current weather conditions

sailwx.info

Wind from 130 at 6 knots

Air temperature 14.4° C
Dewpoint 6.8° C

Last reported at 2016-May-27 09:47 UTC.
Time now 2016-May-27 10:22 UTC

Location: N 68°28' E 016°04'.
View on Google Maps.

See reports from other nearby stations

  
Tides and Currents Weather Stations Pressure Air Temp Water Temp Dewpoint Dewpoint Depression Visibility Wind Speed Wind Dir Waves Ship Positions
date/time (UTC)wind fromknots sea level pressurealtimeterstation pressurevisibilityair tempwater tempwave heightnotes
2016-May-27 09:47 130 6 14.4
2016-May-27 09:32 156 6 14.4
2016-May-27 09:17 295 5 14.4
2016-May-27 09:02 141 4 14.4
2016-May-27 08:47 129 2 15.0
2016-May-27 08:32 171 3 14.4
2016-May-27 08:17 183 3 14.4
2016-May-27 08:02 295 1 15.0
2016-May-27 07:47 173 2 13.3
2016-May-27 07:32 188 1 12.8
2016-May-27 07:17 190 2 12.8
2016-May-27 07:02 196 1 12.8
2016-May-27 06:47 193 1 12.2
2016-May-27 06:32 171 1 11.7
2016-May-27 06:17 158 1 10.6
2016-May-27 06:02 137 10.0
2016-May-27 05:47 018 10.0
2016-May-27 05:32 015 10.0
2016-May-27 05:17 016 9.4
2016-May-27 05:02 016 9.4
2016-May-27 04:47 015 8.9
2016-May-27 04:32 015 8.9
2016-May-27 04:17 016 9.4
2016-May-27 04:02 016 8.9
2016-May-27 03:47 016 8.9
2016-May-27 03:32 016 8.9
2016-May-27 03:17 016 1 7.8
2016-May-27 03:02 015 2 7.2
2016-May-27 02:47 015 7.2
2016-May-27 02:32 015 6.7
2016-May-27 02:17 015 7.2
2016-May-27 02:02 015 6.7
2016-May-27 01:47 015 6.1
2016-May-27 01:32 015 6.7
2016-May-27 01:17 015 6.1
2016-May-27 01:02 015 6.1
2016-May-27 00:47 015 6.1
2016-May-27 00:32 015 6.1
2016-May-27 00:17 015 6.1
2016-May-27 00:02 015 6.7
2016-May-26 23:46 015 6.7
2016-May-26 23:31 015 6.7
2016-May-26 23:16 015 6.7
2016-May-26 23:01 016 7.2
2016-May-26 22:46 015 7.2
2016-May-26 22:31 016 0 7.8
2016-May-26 22:16 342 8.3
2016-May-26 22:01 234 8.3
2016-May-26 21:46 192 7.8
2016-May-26 21:31 189 8.3
2016-May-26 21:16 189 8.3
2016-May-26 21:01 188 8.3
2016-May-26 20:46 188 8.9
2016-May-26 20:31 189 9.4
2016-May-26 20:16 189 8.9
2016-May-26 20:01 189 9.4
2016-May-26 19:46 189 10.0
2016-May-26 19:31 192 10.0
2016-May-26 19:16 194 10.6
2016-May-26 19:01 191 11.1
2016-May-26 18:46 192 10.6
2016-May-26 18:31 191 0 11.1
2016-May-26 18:16 192 0 11.1
2016-May-26 18:01 173 11.7
2016-May-26 17:46 166 11.1
2016-May-26 17:31 165 0 11.7
2016-May-26 17:16 168 0 11.7
2016-May-26 17:01 168 12.2
2016-May-26 16:46 167 0 11.7
2016-May-26 16:31 169 1 11.7
2016-May-26 16:16 160 0 11.7
2016-May-26 16:01 157 0 11.7
2016-May-26 15:46 158 1 11.1
2016-May-26 15:16 156 2 11.1
2016-May-26 15:01 156 3 11.1
2016-May-26 14:46 170 0 11.7
2016-May-26 14:31 159 1 12.2
2016-May-26 14:16 295 0 11.7
2016-May-26 14:01 154 2 11.7
2016-May-26 13:46 156 2 11.1
2016-May-26 13:31 131 3 11.1
2016-May-26 13:16 142 2 11.7
2016-May-26 13:01 144 2 11.1
2016-May-26 12:46 152 2 11.1
2016-May-26 12:31 150 2 11.1
2016-May-26 12:16 177 3 11.1
2016-May-26 12:01 146 3 11.1
2016-May-26 11:46 149 3 11.1
2016-May-26 11:31 141 3 11.1
2016-May-26 11:16 137 3 11.1
2016-May-26 11:01 146 2 11.1
2016-May-26 10:46 163 1 11.1
2016-May-26 10:31 161 3 10.6
2016-May-26 10:16 156 3 10.6
2016-May-26 10:01 140 3 10.0
2016-May-26 09:46 140 2 10.0
2016-May-26 09:31 150 1 10.0
2016-May-26 09:16 188 1 10.0
2016-May-26 09:01 169 0 10.0
2016-May-26 08:46 146 1 10.0
2016-May-26 08:31 140 1 10.0
2016-May-26 08:16 149 0 9.4
2016-May-26 08:01 148 0 9.4
2016-May-26 07:46 160 1 8.9
2016-May-26 07:31 149 2 9.4
2016-May-26 07:15 082 0 8.9
2016-May-26 07:00 005 8.9
2016-May-26 06:45 005 0 8.9
2016-May-26 06:30 005 0 8.9
2016-May-26 06:15 005 8.3
2016-May-26 06:00 005 7.8
2016-May-26 05:45 005 0 7.8
2016-May-26 05:30 005 3 7.8
2016-May-26 05:15 005 4 7.2
2016-May-26 05:00 003 3 7.2
2016-May-26 04:45 003 4 7.2
2016-May-26 04:30 359 4 7.2
2016-May-26 04:15 353 3 7.2
2016-May-26 04:00 352 0 7.2
2016-May-26 03:45 354 3 7.2
2016-May-26 03:30 333 7.2
2016-May-26 03:15 332 7.2
2016-May-26 03:00 332 6.7
2016-May-26 02:45 333 6.7
2016-May-26 02:30 333 6.7
2016-May-26 02:15 333 0 6.7
2016-May-26 02:00 328 2 6.7
2016-May-26 01:45 323 0 6.7
2016-May-26 01:30 323 6.7
2016-May-26 01:15 323 1 6.7
2016-May-26 01:00 329 2 6.7
2016-May-26 00:45 324 0 6.7
2016-May-26 00:30 328 1 6.7
2016-May-26 00:15 328 0 6.7
2016-May-26 00:00 329 0 6.7
2016-May-25 23:45 337 6.7
2016-May-25 23:30 337 6.7
2016-May-25 23:15 337 6.7
2016-May-25 23:00 337 6.7
2016-May-25 22:45 136 6.7
2016-May-25 22:30 135 7.2
2016-May-25 22:15 136 7.2
2016-May-25 22:00 136 7.2
2016-May-25 21:45 135 7.2
2016-May-25 21:30 135 7.2
2016-May-25 21:15 136 7.2
2016-May-25 21:00 136 7.2
2016-May-25 20:45 135 7.2
2016-May-25 20:30 136 7.2
2016-May-25 20:15 135 7.2
2016-May-25 20:00 135 7.2
2016-May-25 19:45 135 7.2
2016-May-25 19:30 135 7.2
2016-May-25 19:15 135 7.2
2016-May-25 19:00 135 7.2
2016-May-25 18:45 136 7.2
2016-May-25 18:30 135 7.2
2016-May-25 18:15 135 7.2
2016-May-25 18:00 135 7.2
2016-May-25 17:45 136 7.2
2016-May-25 17:30 136 0 7.2
2016-May-25 17:15 137 2 7.2
2016-May-25 17:00 126 4 6.7
2016-May-25 16:45 127 3 7.2
2016-May-25 16:30 135 3 7.2
2016-May-25 16:15 131 4 7.2
2016-May-25 16:00 133 3 7.2
2016-May-25 15:47 142 3 7.2
2016-May-25 15:29 173 4 7.2
2016-May-25 15:14 171 5 7.2
2016-May-25 14:59 133 6 7.2
2016-May-25 14:44 156 3 7.8
2016-May-25 14:29 166 3 7.8
2016-May-25 14:14 177 6 7.2
2016-May-25 13:59 153 6 7.2
2016-May-25 13:44 148 5 7.8
2016-May-25 13:29 178 6 7.2
2016-May-25 13:14 156 5 7.8
2016-May-25 12:59 130 5 7.8
2016-May-25 12:44 181 5 7.8
2016-May-25 12:29 169 3 7.8
2016-May-25 12:14 189 4 7.8
2016-May-25 11:59 169 3 7.8
2016-May-25 11:44 208 5 7.8
2016-May-25 11:29 188 4 7.8
2016-May-25 11:14 179 4 7.8
2016-May-25 10:59 295 4 8.3
2016-May-25 10:44 193 5 8.3
2016-May-25 10:29 196 4 8.3